Weather History for Bentonville, AR

Change the Weather History Date:

Wednesday, February 13, 2013

  Actual Average Record
Temperature  
Mean Temperature 42 °F -  
Max Temperature 50 °F 48 °F 80 °F (1962)
Min Temperature 33 °F 26 °F 5 °F (1980)
Degree Days  
Heating Degree Days 24    
Moisture  
Dew Point 31 °F    
Average Humidity 73    
Maximum Humidity 93    
Minimum Humidity 46    
Precipitation  
Precipitation 0.00 in - - ()
Sea Level Pressure  
Sea Level Pressure 29.95 in    
Wind  
Wind Speed 7 mph (West)    
Max Wind Speed 14 mph    
Max Gust Speed 17 mph    
Visibility 8 miles    
Events      
Averages and records for this station are not official NWS values.
T = Trace of Precipitation, MM = Missing Value Source: NWS Daily Summary

Daily Weather History Graph

Daily Weather History Graph

Search for Another Location

Airport:

Trip Planner

Search our weather history database for the weather conditions in past years. The results will help you decide how hot, cold, wet, or windy it might be!

Date:

Astronomy

Feb. 13, 2013 Rise Set
Actual Time 7:06 AM CST 5:56 PM CST
Civil Twilight 6:40 AM CST 6:22 PM CST
Nautical Twilight 6:09 AM CST 6:52 PM CST
Astronomical Twilight 5:39 AM CST 7:22 PM CST
Moon 8:44 AM CST (2/13) 9:50 PM CST (2/13)
Length of Visible Light 11h 42m
Length of Day
10h 49m
Waxing Crescent, 14% of the Moon is Illuminated
Feb 13
Waxing Crescent
Feb 17
First Quarter
Feb 25
Full
Mar 4
Last Quarter
Mar 11
New

Hourly Weather History & Observations

Time (CST) Temp. Windchill Dew Point Humidity Pressure Visibility Wind Dir Wind Speed Gust Speed Precip Events Conditions
12:15 AM 33.8 °F 28.6 °F 30.2 °F 87% 29.94 in 3.0 mi North 5.8 mph - 0.01 in   Overcast
12:35 AM 33.8 °F 29.6 °F 30.2 °F 87% 29.93 in 5.0 mi North 4.6 mph - 0.01 in   Overcast
1:15 AM 33.8 °F 28.6 °F 30.2 °F 87% 29.93 in 3.0 mi North 5.8 mph - N/A   Overcast
1:35 AM 33.8 °F 28.6 °F 30.2 °F 87% 29.94 in 5.0 mi NNW 5.8 mph - N/A   Overcast
1:55 AM 33.8 °F 27.0 °F 30.2 °F 87% 29.94 in 7.0 mi North 8.1 mph - N/A   Overcast
2:16 AM 33.8 °F 27.7 °F 30.2 °F 87% 29.93 in 10.0 mi North 6.9 mph - N/A   Overcast
2:35 AM 33.8 °F 28.6 °F 30.2 °F 87% 29.93 in 10.0 mi North 5.8 mph - N/A   Overcast
2:55 AM 33.8 °F 27.0 °F 30.2 °F 87% 29.93 in 9.0 mi North 8.1 mph - N/A   Overcast
3:35 AM 33.8 °F 26.4 °F 30.2 °F 87% 29.93 in 5.0 mi North 9.2 mph - N/A   Overcast
3:55 AM 33.8 °F 27.0 °F 30.2 °F 87% 29.93 in 6.0 mi North 8.1 mph - N/A   Overcast
4:15 AM 33.8 °F 30.8 °F 30.2 °F 87% 29.93 in 6.0 mi NNW 3.5 mph - N/A   Overcast
4:35 AM 33.8 °F 30.8 °F 30.2 °F 87% 29.94 in 5.0 mi NW 3.5 mph - N/A   Overcast
4:55 AM 33.8 °F - 30.2 °F 87% 29.93 in 6.0 mi Calm Calm - N/A   Overcast
5:15 AM 33.8 °F 29.6 °F 30.2 °F 87% 29.94 in 7.0 mi WNW 4.6 mph - N/A   Overcast
5:55 AM 33.8 °F 28.6 °F 30.2 °F 87% 29.95 in 3.0 mi WNW 5.8 mph - N/A   Overcast
6:15 AM 33.8 °F 29.6 °F 30.2 °F 87% 29.95 in 2.0 mi West 4.6 mph - N/A   Overcast
6:35 AM 33.8 °F 28.6 °F 30.2 °F 87% 29.96 in 1.0 mi WNW 5.8 mph - N/A   Overcast
6:55 AM 33.8 °F 27.7 °F 30.2 °F 87% 29.97 in 1.0 mi WNW 6.9 mph - N/A   Overcast
7:15 AM 33.8 °F 27.7 °F 30.2 °F 87% 29.98 in 0.2 mi West 6.9 mph - N/A   Overcast
7:35 AM 33.8 °F 29.6 °F 30.2 °F 87% 29.99 in 0.2 mi West 4.6 mph - N/A   Overcast
8:15 AM 33.8 °F 27.0 °F 32.0 °F 93% 29.99 in 4.0 mi West 8.1 mph - N/A   Overcast
8:35 AM 33.8 °F 27.7 °F 32.0 °F 93% 29.99 in 7.0 mi West 6.9 mph - N/A   Overcast
8:55 AM 35.6 °F 29.2 °F 32.0 °F 87% 30.00 in 7.0 mi WSW 8.1 mph - N/A   Overcast
9:15 AM 35.6 °F 28.6 °F 32.0 °F 87% 30.00 in 10.0 mi WSW 9.2 mph - N/A   Overcast
9:35 AM 35.6 °F 28.6 °F 33.8 °F 93% 29.99 in 10.0 mi WSW 9.2 mph - N/A   Overcast
9:55 AM 37.4 °F 30.3 °F 32.0 °F 81% 29.99 in 7.0 mi SW 10.4 mph - N/A   Overcast
10:15 AM 37.4 °F 29.3 °F 33.8 °F 87% 29.99 in 9.0 mi WSW 12.7 mph - N/A   Overcast
10:35 AM 39.2 °F 32.0 °F 33.8 °F 81% 29.99 in 9.0 mi WSW 11.5 mph - N/A   Overcast
10:55 AM 39.2 °F 32.0 °F 33.8 °F 81% 29.99 in 10.0 mi West 11.5 mph - N/A   Overcast
11:16 AM 41.0 °F 33.9 °F 33.8 °F 76% 29.99 in 10.0 mi West 12.7 mph 17.3 mph N/A   Overcast
11:35 AM 41.0 °F 34.7 °F 33.8 °F 76% 29.99 in 10.0 mi West 10.4 mph 16.1 mph N/A   Overcast
11:55 AM 42.8 °F 36.2 °F 35.6 °F 76% 29.98 in 10.0 mi West 12.7 mph - N/A   Overcast
12:35 PM 44.6 °F 39.7 °F 35.6 °F 71% 29.97 in 10.0 mi WSW 9.2 mph - N/A   Scattered Clouds
12:55 PM 44.6 °F 39.2 °F 33.8 °F 66% 29.97 in 10.0 mi WSW 10.4 mph 17.3 mph N/A   Scattered Clouds
1:15 PM 46.4 °F 40.7 °F 33.8 °F 62% 29.96 in 10.0 mi West 12.7 mph - N/A   Partly Cloudy
1:36 PM 46.4 °F 41.1 °F 33.8 °F 62% 29.95 in 10.0 mi WSW 11.5 mph - N/A   Clear
1:55 PM 48.2 °F - 33.8 °F 58% 29.94 in 10.0 mi West 12.7 mph - N/A   Clear
2:15 PM 48.2 °F - 32.0 °F 54% 29.94 in 10.0 mi WSW 13.8 mph - N/A   Clear
2:55 PM 50.0 °F - 30.2 °F 47% 29.93 in 10.0 mi West 12.7 mph 17.3 mph N/A   Clear
3:15 PM 50.0 °F - 32.0 °F 50% 29.93 in 10.0 mi West 11.5 mph - N/A   Clear
3:35 PM 50.0 °F - 30.2 °F 47% 29.93 in 10.0 mi WNW 9.2 mph - N/A   Clear
3:55 PM 50.0 °F - 30.2 °F 47% 29.93 in 10.0 mi West 10.4 mph - N/A   Clear
4:15 PM 50.0 °F - 30.2 °F 47% 29.92 in 10.0 mi West 9.2 mph - N/A   Clear
4:35 PM 50.0 °F - 30.2 °F 47% 29.92 in 10.0 mi WSW 9.2 mph - N/A   Clear
4:56 PM 48.2 °F - 30.2 °F 50% 29.92 in 10.0 mi West 10.4 mph - N/A   Clear
5:15 PM 48.2 °F - 30.2 °F 50% 29.92 in 10.0 mi West 8.1 mph - N/A   Clear
5:35 PM 48.2 °F - 28.4 °F 46% 29.92 in 10.0 mi West 8.1 mph - N/A   Clear
5:55 PM 46.4 °F 42.9 °F 28.4 °F 50% 29.92 in 10.0 mi WSW 6.9 mph - N/A   Clear
6:15 PM 44.6 °F 43.1 °F 30.2 °F 57% 29.92 in 10.0 mi SW 3.5 mph - N/A   Clear
6:35 PM 44.6 °F 43.1 °F 28.4 °F 53% 29.92 in 10.0 mi SW 3.5 mph - N/A   Clear
6:55 PM 42.8 °F 40.1 °F 30.2 °F 61% 29.92 in 10.0 mi SW 4.6 mph - N/A   Clear
7:35 PM 42.8 °F 41.1 °F 30.2 °F 61% 29.93 in 10.0 mi SSW 3.5 mph - N/A   Clear
7:55 PM 42.8 °F 40.1 °F 30.2 °F 61% 29.93 in 10.0 mi SW 4.6 mph - N/A   Clear
8:15 PM 41.0 °F 39.0 °F 30.2 °F 65% 29.93 in 10.0 mi SSW 3.5 mph - N/A   Clear
8:36 PM 41.0 °F 39.0 °F 28.4 °F 61% 29.93 in 10.0 mi SSW 3.5 mph - N/A   Clear
8:55 PM 39.2 °F 35.9 °F 28.4 °F 65% 29.93 in 10.0 mi SSW 4.6 mph - N/A   Clear
9:15 PM 39.2 °F 37.0 °F 30.2 °F 70% 29.93 in 10.0 mi SSW 3.5 mph - N/A   Clear
9:55 PM 39.2 °F 37.0 °F 28.4 °F 65% 29.94 in 10.0 mi SSW 3.5 mph - N/A   Clear
10:15 PM 37.4 °F 33.8 °F 28.4 °F 70% 29.94 in 10.0 mi SSW 4.6 mph - N/A   Clear
10:35 PM 37.4 °F 32.8 °F 28.4 °F 70% 29.94 in 10.0 mi SSW 5.8 mph - N/A   Clear
11:15 PM 37.4 °F 32.1 °F 28.4 °F 70% 29.94 in 10.0 mi SW 6.9 mph - N/A   Clear
11:35 PM 37.4 °F 32.1 °F 28.4 °F 70% 29.94 in 10.0 mi SW 6.9 mph - N/A   Clear
11:55 PM 37.4 °F 32.1 °F 28.4 °F 70% 29.94 in 10.0 mi SW 6.9 mph - N/A   Clear